QPF
0.00 0.00 0.00 0.00 0.00 0.00 0.00 0.00 0.00 0.00 0.00 0.00 0.00 0.00 0.00 0.00 0.00 0.00 0.00 0.00 0.00 0.00 0.00 0.00 0.00 0.00 0.00 0.00 0.00 0.00 0.00 0.00 0.00 0.00 0.00 0.00 0.00 0.00 0.00 0.00 0.00 0.00 0.00 0.00
0.00 0.00 0.00 0.00 0.00 0.00 0.00 0.00 0.00 0.00 0.00 0.00 0.00 0.00 0.00 0.00 0.00 0.00 0.00 0.00 0.00 0.00 0.00 0.00 0.00 0.00 0.00 0.00 0.00 0.00 0.00 0.00 0.00 0.00 0.00 0.00 0.00 0.00 0.00 0.00 0.00 0.00 0.00 0.00
0.00 0.00 0.00 0.00 0.00 0.00 0.00 0.00 0.00 0.00 0.00 0.00 0.00 0.00 0.00 0.00 0.00 0.00 0.00 0.00 0.00 0.00 0.00 0.00 0.00 0.00 0.00 0.00 0.00 0.00 0.00 0.00 0.00 0.00 0.00 0.00 0.00 0.00 0.00 0.00 0.00 0.00 0.00 0.00
0.00 0.00 0.00 0.00 0.00 0.00 0.00 0.00 0.00 0.00 0.00 0.00 0.00 0.00 0.00 0.00 0.00 0.00 0.00 0.00 0.00 0.00 0.00 0.00 0.00 0.00 0.00 0.00 0.00 0.00 0.00 0.00 0.00 0.00 0.00 0.00 0.00 0.00 0.00 0.00 0.00 0.00 0.00 0.00
0.00 0.00 0.00 0.00 0.00 0.00 0.00 0.00 0.00 0.00 0.00 0.00 0.00 0.00 0.00 0.00 0.00 0.00 0.00 0.00 0.00 0.00 0.00 0.00 0.00 0.00 0.00 0.00 0.00 0.00 0.00 0.00 0.00 0.00 0.00 0.00 0.00 0.00 0.00 0.00 0.00 0.00 0.00 0.00
0.00 0.00 0.00 0.00 0.00 0.00 0.00 0.00 0.00 0.00 0.00 0.00 0.00 0.00 0.00 0.00 0.00 0.00 0.00 0.00 0.00 0.00 0.00 0.00 0.00 0.00 0.00 0.00 0.00 0.00 0.00 0.00 0.00 0.00 0.00 0.00 0.00 0.00 0.00 0.00 0.00 0.00 0.00 0.00
0.00 0.00 0.00 0.00 0.00 0.00 0.00 0.00 0.00 0.00 0.00 0.00 0.00 0.00 0.00 0.00 0.00 0.00 0.00 0.00 0.00 0.00 0.00 0.00 0.00 0.00 0.00 0.00 0.00 0.00 0.00 0.00 0.00 0.00 0.00 0.00 0.00 0.00 0.00 0.00 0.00 0.00 0.00 0.00
0.00 0.00 0.00 0.00 0.00 0.00 0.00 0.00 0.00 0.00 0.00 0.00 0.00 0.00 0.00 0.00 0.00 0.00 0.00 0.00 0.00 0.00 0.00 0.00 0.00 0.00 0.00 0.00 0.00 0.00 0.00 0.00 0.00 0.00 0.00 0.00 0.00 0.00 0.00 0.00 0.00 0.00 0.00 0.00
0.00 0.00 0.00 0.00 0.00 0.00 0.00 0.00 0.00 0.00 0.00 0.00 0.00 0.00 0.00 0.00 0.00 0.00 0.00 0.00 0.00 0.00 0.00 0.00 0.00 0.00 0.00 0.00 0.00 0.00 0.00 0.00 0.00 0.00 0.00 0.00 0.00 0.00 0.00 0.00 0.00 0.00 0.00 0.00
0.00 0.00 0.00 0.00 0.00 0.00 0.00 0.00 0.00 0.00 0.00 0.00 0.00 0.00 0.00 0.00 0.00 0.00 0.00 0.00 0.00 0.00 0.00 0.00 0.00 0.00 0.00 0.00 0.00 0.00 0.00 0.00 0.00 0.00 0.00 0.00 0.00 0.00 0.00 0.00 0.00 0.00 0.00 0.00
0.00 0.00 0.00 0.00 0.00 0.00 0.00 0.00 0.00 0.00 0.00 0.00 0.00 0.00 0.00 0.00 0.00 0.00 0.00 0.00 0.00 0.00 0.00 0.00 0.00 0.00 0.00 0.00 0.00 0.00 0.00 0.00 0.00 0.00 0.00 0.00 0.00 0.00 0.00 0.00 0.00 0.00 0.00 0.00
0.00 0.00 0.00 0.00 0.00 0.00 0.00 0.00 0.00 0.00 0.00 0.00 0.00 0.00 0.00 0.00 0.00 0.00 0.00 0.00 0.00 0.00 0.00 0.00 0.00 0.00 0.00 0.00 0.00 0.00 0.00 0.00 0.00 0.00 0.00 0.00 0.00 0.00 0.00 0.00 0.00 0.00 0.00 0.00
0.00 0.00 0.00 0.00 0.00 0.00 0.00 0.00 0.00 0.00 0.00 0.00 0.00 0.00 0.00 0.00 0.00 0.00 0.00 0.00 0.00 0.00 0.00 0.00 0.00 0.00 0.00 0.00 0.00 0.00 0.00 0.00 0.00 0.00 0.00 0.00 0.00 0.00 0.00 0.00 0.00 0.00 0.00 0.00
0.00 0.00 0.00 0.00 0.00 0.00 0.00 0.00 0.00 0.00 0.00 0.00 0.00 0.00 0.00 0.00 0.00 0.00 0.00 0.00 0.00 0.00 0.00 0.00 0.00 0.00 0.00 0.00 0.00 0.00 0.00 0.00 0.00 0.00 0.00 0.00 0.00 0.00 0.00 0.00 0.00 0.00 0.00 0.00
0.00 0.00 0.00 0.00 0.00 0.00 0.00 0.00 0.00 0.00 0.00 0.00 0.00 0.00 0.00 0.00 0.00 0.00 0.00 0.00 0.00 0.00 0.00 0.00 0.00 0.00 0.00 0.00 0.00 0.00 0.00 0.00 0.00 0.00 0.00 0.00 0.00 0.00 0.00 0.00 0.00 0.00 0.00 0.00
0.00 0.00 0.00 0.00 0.00 0.00 0.00 0.00 0.00 0.00 0.00 0.00 0.00 0.00 0.00 0.00 0.00 0.00 0.00 0.00 0.00 0.00 0.00 0.00 0.00 0.00 0.00 0.00 0.00 0.00 0.00 0.00 0.00 0.00 0.00 0.00 0.00 0.00 0.00 0.00 0.00 0.00 0.00 0.00
0.00 0.00 0.00 0.00 0.00 0.00 0.00 0.00 0.00 0.00 0.00 0.00 0.00 0.00 0.00 0.00 0.00 0.00 0.00 0.00 0.00 0.00 0.00 0.00 0.00 0.00 0.00 0.00 0.00 0.00 0.00 0.00 0.00 0.00 0.00 0.00 0.00 0.00 0.00 0.00 0.00 0.00 0.00 0.00
0.00 0.00 0.00 0.00 0.00 0.00 0.00 0.00 0.00 0.00 0.00 0.00 0.00 0.00 0.00 0.00 0.00 0.00 0.00 0.00 0.00 0.00 0.00 0.00 0.00 0.00 0.00 0.00 0.00 0.00 0.00 0.00 0.00 0.00 0.00 0.00 0.00 0.00 0.00 0.00 0.00 0.00 0.00 0.00
0.00 0.00 0.00 0.00 0.00 0.00 0.00 0.00 0.00 0.00 0.00 0.00 0.00 0.00 0.00 0.00 0.00 0.00 0.00 0.00 0.00 0.00 0.00 0.00 0.00 0.00 0.00 0.00 0.00 0.00 0.00 0.00 0.00 0.00 0.00 0.00 0.00 0.00 0.00 0.00 0.00 0.00 0.00 0.00
0.00 0.00 0.00 0.00 0.00 0.00 0.00 0.00 0.00 0.00 0.00 0.00 0.00 0.00 0.00 0.00 0.00 0.00 0.00 0.00 0.00 0.00 0.00 0.00 0.00 0.00 0.00 0.00 0.00 0.00 0.00 0.00 0.00 0.00 0.00 0.00 0.00 0.00 0.00 0.00 0.00 0.00 0.00 0.00
0.00 0.00 0.00 0.00 0.00 0.00 0.00 0.00 0.00 0.00 0.00 0.00 0.00 0.00 0.00 0.00 0.00 0.00 0.00 0.00 0.00 0.00 0.00 0.00 0.00 0.00 0.00 0.00 0.00 0.00 0.00 0.00 0.00 0.00 0.00 0.00 0.00 0.00 0.00 0.00 0.00 0.00 0.00 0.00
0.00 0.00 0.00 0.00 0.00 0.00 0.00 0.00 0.00 0.00 0.00 0.00 0.00 0.00 0.00 0.00 0.00 0.00 0.00 0.00 0.00 0.00 0.00 0.00 0.00 0.00 0.00 0.00 0.00 0.00 0.00 0.00 0.00 0.00 0.00 0.00 0.00 0.00 0.00 0.00 0.00 0.00 0.00 0.00
0.00 0.00 0.00 0.00 0.00 0.00 0.00 0.00 0.00 0.00 0.00 0.00 0.00 0.00 0.00 0.00 0.00 0.00 0.00 0.00 0.00 0.00 0.00 0.00 0.00 0.00 0.00 0.00 0.00 0.00 0.00 0.00 0.00 0.00 0.00 0.00 0.00 0.00 0.00 0.00 0.00 0.00 0.00 0.00
0.00 0.00 0.00 0.00 0.00 0.00 0.00 0.00 0.00 0.00 0.00 0.00 0.00 0.00 0.00 0.00 0.00 0.00 0.00 0.00 0.00 0.00 0.00 0.00 0.00 0.00 0.00 0.00 0.00 0.00 0.00 0.00 0.00 0.00 0.00 0.00 0.00 0.00 0.00 0.00 0.00 0.00 0.00 0.00
0.00 0.00 0.00 0.00 0.00 0.00 0.00 0.00 0.00 0.00 0.00 0.00 0.00 0.00 0.00 0.00 0.00 0.00 0.00 0.00 0.00 0.00 0.00 0.00 0.00 0.00 0.00 0.00 0.00 0.00 0.00 0.00 0.00 0.00 0.00 0.00 0.00 0.00 0.00 0.00 0.00 0.00 0.00 0.00
0.00 0.00 0.00 0.00 0.00 0.00 0.00 0.00 0.00 0.00 0.00 0.00 0.00 0.00 0.00 0.00 0.00 0.00 0.00 0.00 0.00 0.00 0.00 0.00 0.00 0.00 0.00 0.00 0.00 0.00 0.00 0.00 0.00 0.00 0.00 0.00 0.00 0.00 0.00 0.00 0.00 0.00 0.00 0.00
MSLP
1016.01 1016.26 1016.39 1016.41 1016.38 1016.32 1016.24 1016.14 1015.98 1015.73 1015.34 1014.79 1014.07 1013.21 1012.26 1011.30 1010.40 1009.63 1009.04 1008.62 1008.40 1008.33 1008.40 1008.58 1008.86 1009.22 1009.69 1010.27 1010.96 1011.76 1012.64 1013.53 1014.40 1015.19 1015.86 1016.39 1016.79 1017.09 1017.33 1017.57 1017.85 1018.20 1018.62 1019.11
1016.03 1016.18 1016.23 1016.21 1016.18 1016.15 1016.14 1016.12 1016.04 1015.86 1015.52 1014.99 1014.28 1013.42 1012.47 1011.51 1010.63 1009.88 1009.32 1008.94 1008.74 1008.67 1008.69 1008.78 1008.93 1009.15 1009.45 1009.87 1010.42 1011.11 1011.92 1012.79 1013.67 1014.49 1015.20 1015.76 1016.17 1016.46 1016.66 1016.84 1017.06 1017.34 1017.70 1018.15
1015.88 1015.93 1015.91 1015.88 1015.87 1015.91 1015.98 1016.07 1016.09 1016.00 1015.71 1015.21 1014.51 1013.64 1012.68 1011.73 1010.87 1010.18 1009.68 1009.37 1009.21 1009.17 1009.18 1009.22 1009.26 1009.32 1009.45 1009.69 1010.07 1010.61 1011.31 1012.12 1012.97 1013.79 1014.52 1015.10 1015.52 1015.80 1015.98 1016.12 1016.27 1016.48 1016.79 1017.19
1015.63 1015.58 1015.52 1015.49 1015.54 1015.67 1015.86 1016.07 1016.20 1016.17 1015.93 1015.45 1014.73 1013.83 1012.85 1011.89 1011.05 1010.40 1009.96 1009.74 1009.66 1009.68 1009.72 1009.73 1009.70 1009.65 1009.62 1009.68 1009.88 1010.25 1010.81 1011.52 1012.30 1013.09 1013.81 1014.40 1014.83 1015.11 1015.26 1015.36 1015.46 1015.61 1015.86 1016.21
1015.31 1015.21 1015.14 1015.14 1015.27 1015.51 1015.83 1016.16 1016.38 1016.42 1016.20 1015.70 1014.93 1013.97 1012.94 1011.94 1011.09 1010.47 1010.10 1009.95 1009.97 1010.07 1010.16 1010.20 1010.14 1010.01 1009.86 1009.77 1009.80 1010.00 1010.41 1010.99 1011.68 1012.40 1013.09 1013.66 1014.08 1014.34 1014.47 1014.54 1014.60 1014.71 1014.90 1015.21
1015.00 1014.88 1014.83 1014.89 1015.12 1015.48 1015.92 1016.35 1016.66 1016.73 1016.51 1015.96 1015.12 1014.07 1012.95 1011.89 1011.01 1010.39 1010.05 1009.98 1010.09 1010.28 1010.46 1010.54 1010.49 1010.33 1010.10 1009.89 1009.78 1009.83 1010.08 1010.51 1011.08 1011.71 1012.33 1012.85 1013.25 1013.49 1013.61 1013.66 1013.68 1013.76 1013.92 1014.18
1014.74 1014.62 1014.62 1014.77 1015.09 1015.56 1016.11 1016.62 1016.98 1017.06 1016.81 1016.20 1015.27 1014.13 1012.92 1011.77 1010.84 1010.20 1009.89 1009.86 1010.04 1010.32 1010.58 1010.73 1010.72 1010.56 1010.30 1010.01 1009.78 1009.69 1009.79 1010.07 1010.50 1011.02 1011.54 1012.00 1012.36 1012.57 1012.68 1012.71 1012.72 1012.78 1012.91 1013.15
1014.54 1014.47 1014.52 1014.75 1015.16 1015.71 1016.33 1016.89 1017.27 1017.35 1017.05 1016.38 1015.38 1014.16 1012.86 1011.65 1010.67 1010.01 1009.69 1009.69 1009.92 1010.26 1010.59 1010.81 1010.85 1010.71 1010.43 1010.09 1009.78 1009.57 1009.53 1009.66 1009.95 1010.34 1010.75 1011.13 1011.43 1011.61 1011.70 1011.72 1011.73 1011.77 1011.90 1012.12
1014.43 1014.40 1014.51 1014.79 1015.25 1015.85 1016.50 1017.07 1017.43 1017.48 1017.16 1016.44 1015.40 1014.14 1012.80 1011.56 1010.56 1009.88 1009.57 1009.58 1009.83 1010.20 1010.57 1010.82 1010.89 1010.78 1010.50 1010.13 1009.75 1009.45 1009.29 1009.28 1009.43 1009.68 1009.98 1010.27 1010.50 1010.64 1010.71 1010.73 1010.74 1010.78 1010.91 1011.12
1014.40 1014.41 1014.56 1014.87 1015.34 1015.92 1016.53 1017.06 1017.39 1017.40 1017.05 1016.33 1015.30 1014.06 1012.75 1011.54 1010.56 1009.90 1009.58 1009.59 1009.83 1010.20 1010.57 1010.83 1010.91 1010.80 1010.52 1010.13 1009.70 1009.33 1009.07 1008.94 1008.96 1009.08 1009.27 1009.46 1009.62 1009.72 1009.77 1009.78 1009.79 1009.84 1009.95 1010.15
1014.46 1014.51 1014.66 1014.95 1015.36 1015.87 1016.40 1016.84 1017.08 1017.05 1016.70 1016.01 1015.04 1013.89 1012.69 1011.58 1010.67 1010.06 1009.77 1009.76 1009.98 1010.30 1010.63 1010.86 1010.92 1010.80 1010.51 1010.10 1009.64 1009.21 1008.87 1008.66 1008.56 1008.57 1008.65 1008.75 1008.84 1008.89 1008.91 1008.91 1008.92 1008.96 1009.06 1009.24
1014.64 1014.70 1014.83 1015.05 1015.36 1015.73 1016.10 1016.40 1016.54 1016.46 1016.10 1015.47 1014.62 1013.62 1012.58 1011.63 1010.86 1010.33 1010.07 1010.06 1010.24 1010.50 1010.76 1010.92 1010.94 1010.78 1010.47 1010.05 1009.58 1009.12 1008.73 1008.44 1008.25 1008.17 1008.15 1008.16 1008.18 1008.19 1008.17 1008.15 1008.14 1008.16 1008.24 1008.37
1014.94 1015.00 1015.07 1015.18 1015.34 1015.52 1015.71 1015.83 1015.83 1015.67 1015.32 1014.76 1014.05 1013.24 1012.41 1011.65 1011.04 1010.63 1010.43 1010.42 1010.54 1010.73 1010.90 1010.98 1010.94 1010.74 1010.41 1009.99 1009.51 1009.04 1008.63 1008.29 1008.05 1007.88 1007.78 1007.72 1007.66 1007.61 1007.55 1007.50 1007.46 1007.45 1007.48 1007.57
1015.35 1015.38 1015.38 1015.37 1015.35 1015.33 1015.29 1015.21 1015.05 1014.80 1014.44 1013.96 1013.38 1012.77 1012.15 1011.61 1011.17 1010.88 1010.74 1010.73 1010.81 1010.92 1011.00 1011.00 1010.89 1010.66 1010.32 1009.91 1009.45 1009.00 1008.58 1008.22 1007.93 1007.71 1007.53 1007.39 1007.26 1007.15 1007.04 1006.94 1006.86 1006.81 1006.79 1006.80
1015.81 1015.83 1015.76 1015.62 1015.42 1015.18 1014.92 1014.63 1014.31 1013.96 1013.56 1013.14 1012.69 1012.24 1011.83 1011.48 1011.21 1011.04 1010.96 1010.95 1010.98 1011.01 1011.01 1010.94 1010.78 1010.53 1010.20 1009.82 1009.40 1008.97 1008.58 1008.21 1007.89 1007.61 1007.37 1007.15 1006.95 1006.76 1006.59 1006.44 1006.31 1006.20 1006.13 1006.08
1016.26 1016.26 1016.13 1015.88 1015.53 1015.10 1014.64 1014.16 1013.68 1013.22 1012.79 1012.40 1012.04 1011.73 1011.48 1011.28 1011.15 1011.07 1011.03 1011.02 1011.02 1010.99 1010.93 1010.80 1010.62 1010.36 1010.06 1009.71 1009.34 1008.96 1008.59 1008.23 1007.89 1007.56 1007.25 1006.96 1006.67 1006.41 1006.17 1005.96 1005.77 1005.62 1005.49 1005.38
1016.60 1016.59 1016.42 1016.09 1015.63 1015.06 1014.44 1013.81 1013.21 1012.66 1012.19 1011.80 1011.51 1011.29 1011.15 1011.07 1011.02 1011.01 1011.00 1010.98 1010.94 1010.87 1010.76 1010.60 1010.41 1010.17 1009.90 1009.60 1009.29 1008.96 1008.61 1008.25 1007.89 1007.51 1007.13 1006.76 1006.39 1006.05 1005.74 1005.46 1005.23 1005.02 1004.84 1004.69
1016.72 1016.72 1016.53 1016.16 1015.64 1015.00 1014.29 1013.57 1012.88 1012.28 1011.78 1011.40 1011.13 1010.97 1010.89 1010.88 1010.89 1010.90 1010.90 1010.87 1010.81 1010.70 1010.56 1010.39 1010.19 1009.98 1009.75 1009.50 1009.23 1008.94 1008.61 1008.24 1007.85 1007.42 1006.97 1006.51 1006.06 1005.64 1005.27 1004.93 1004.65 1004.40 1004.19 1004.00
1016.58 1016.58 1016.40 1016.03 1015.50 1014.84 1014.11 1013.37 1012.67 1012.05 1011.55 1011.17 1010.93 1010.80 1010.76 1010.77 1010.80 1010.82 1010.81 1010.76 1010.67 1010.54 1010.38 1010.20 1010.01 1009.81 1009.61 1009.40 1009.16 1008.88 1008.56 1008.17 1007.73 1007.25 1006.73 1006.20 1005.68 1005.19 1004.75 1004.37 1004.04 1003.77 1003.54 1003.33
1016.19 1016.18 1016.00 1015.66 1015.16 1014.55 1013.87 1013.16 1012.50 1011.92 1011.44 1011.10 1010.88 1010.77 1010.74 1010.76 1010.79 1010.80 1010.77 1010.70 1010.58 1010.43 1010.25 1010.06 1009.87 1009.68 1009.49 1009.28 1009.05 1008.77 1008.43 1008.02 1007.54 1007.00 1006.42 1005.82 1005.24 1004.69 1004.20 1003.79 1003.43 1003.14 1002.89 1002.68
1015.60 1015.56 1015.40 1015.09 1014.66 1014.13 1013.54 1012.92 1012.34 1011.84 1011.43 1011.13 1010.95 1010.86 1010.84 1010.85 1010.87 1010.86 1010.81 1010.71 1010.57 1010.39 1010.19 1009.98 1009.77 1009.57 1009.37 1009.15 1008.90 1008.60 1008.23 1007.78 1007.26 1006.67 1006.04 1005.40 1004.77 1004.19 1003.67 1003.22 1002.85 1002.54 1002.28 1002.06
1014.95 1014.86 1014.69 1014.42 1014.06 1013.63 1013.15 1012.65 1012.18 1011.78 1011.45 1011.22 1011.08 1011.01 1011.00 1011.01 1011.01 1010.99 1010.91 1010.78 1010.61 1010.40 1010.16 1009.93 1009.69 1009.45 1009.22 1008.96 1008.68 1008.34 1007.93 1007.45 1006.89 1006.28 1005.62 1004.96 1004.31 1003.71 1003.17 1002.71 1002.32 1002.00 1001.73 1001.49
1014.35 1014.19 1014.00 1013.76 1013.46 1013.12 1012.75 1012.38 1012.03 1011.73 1011.49 1011.33 1011.23 1011.19 1011.19 1011.19 1011.18 1011.12 1011.02 1010.87 1010.66 1010.42 1010.15 1009.86 1009.58 1009.30 1009.01 1008.71 1008.38 1008.00 1007.56 1007.05 1006.48 1005.85 1005.20 1004.53 1003.88 1003.28 1002.74 1002.27 1001.87 1001.54 1001.24 1000.98
1013.92 1013.68 1013.45 1013.22 1012.96 1012.70 1012.43 1012.16 1011.92 1011.71 1011.55 1011.44 1011.38 1011.36 1011.35 1011.34 1011.31 1011.23 1011.10 1010.92 1010.68 1010.39 1010.08 1009.75 1009.41 1009.07 1008.73 1008.37 1007.99 1007.58 1007.11 1006.60 1006.03 1005.41 1004.78 1004.13 1003.51 1002.92 1002.38 1001.91 1001.49 1001.13 1000.81 1000.52
1013.71 1013.40 1013.12 1012.88 1012.65 1012.43 1012.23 1012.04 1011.87 1011.73 1011.63 1011.55 1011.51 1011.49 1011.47 1011.44 1011.38 1011.27 1011.11 1010.89 1010.61 1010.29 1009.93 1009.55 1009.15 1008.76 1008.36 1007.95 1007.53 1007.09 1006.61 1006.10 1005.55 1004.97 1004.37 1003.76 1003.17 1002.60 1002.07 1001.59 1001.15 1000.76 1000.40 1000.07
1013.69 1013.32 1013.01 1012.75 1012.53 1012.35 1012.19 1012.05 1011.92 1011.82 1011.73 1011.67 1011.62 1011.57 1011.53 1011.47 1011.37 1011.23 1011.03 1010.77 1010.46 1010.09 1009.69 1009.26 1008.81 1008.36 1007.91 1007.46 1007.01 1006.56 1006.08 1005.59 1005.07 1004.53 1003.97 1003.40 1002.83 1002.28 1001.75 1001.25 1000.79 1000.36 999.96 999.58
Thickness
5703 5691 5685 5694 5698 5693 5689 5684 5682 5694 5710 5702 5697 5701 5716 5726 5728 5727 5725 5725 5725 5727 5732 5735 5733 5725 5715 5706 5697 5689 5680 5672 5664 5657 5651 5646 5642 5638 5634 5630 5625 5619 5612 5605
5690 5684 5696 5700 5696 5689 5683 5678 5682 5695 5707 5697 5694 5699 5714 5725 5725 5723 5720 5717 5715 5716 5719 5721 5720 5715 5707 5700 5693 5686 5678 5670 5663 5657 5651 5645 5639 5634 5631 5626 5621 5616 5609 5602
5682 5694 5698 5692 5686 5682 5682 5678 5681 5681 5687 5695 5691 5691 5712 5720 5722 5718 5714 5711 5709 5708 5706 5706 5706 5703 5698 5692 5687 5682 5675 5668 5661 5652 5644 5638 5632 5628 5625 5622 5618 5613 5606 5600
5689 5697 5690 5684 5680 5682 5674 5684 5678 5674 5666 5669 5681 5662 5691 5708 5706 5705 5702 5700 5699 5699 5699 5697 5695 5693 5689 5686 5682 5676 5670 5663 5656 5648 5640 5635 5631 5629 5628 5620 5614 5608 5602 5596
5685 5692 5685 5678 5681 5679 5679 5681 5674 5668 5661 5658 5673 5664 5680 5702 5694 5693 5693 5694 5693 5693 5691 5689 5687 5685 5683 5679 5674 5668 5663 5656 5650 5643 5636 5629 5626 5623 5616 5611 5606 5602 5597 5591
5686 5693 5686 5682 5681 5678 5674 5672 5672 5665 5656 5649 5674 5666 5671 5692 5692 5689 5687 5686 5686 5684 5682 5680 5679 5677 5674 5671 5665 5660 5654 5649 5643 5636 5630 5624 5619 5612 5606 5603 5599 5595 5590 5585
5687 5684 5683 5679 5671 5671 5665 5657 5652 5646 5636 5649 5672 5665 5669 5694 5696 5689 5682 5679 5678 5676 5672 5668 5666 5664 5663 5660 5656 5651 5646 5640 5634 5629 5623 5618 5611 5604 5600 5595 5590 5586 5582 5579
5671 5670 5673 5672 5670 5661 5665 5656 5638 5630 5637 5649 5666 5656 5676 5698 5694 5689 5681 5674 5670 5666 5662 5659 5656 5654 5651 5650 5647 5642 5637 5631 5626 5621 5616 5610 5604 5598 5594 5589 5584 5580 5577 5573
5667 5666 5670 5673 5671 5662 5658 5655 5653 5635 5634 5631 5650 5671 5686 5694 5686 5679 5672 5665 5659 5656 5653 5650 5648 5645 5643 5640 5637 5633 5629 5624 5619 5613 5608 5603 5597 5592 5588 5582 5577 5573 5569 5564
5665 5656 5667 5660 5658 5654 5651 5645 5638 5627 5619 5617 5641 5654 5658 5671 5670 5668 5661 5653 5650 5648 5645 5643 5639 5637 5634 5632 5628 5625 5621 5616 5612 5606 5601 5596 5591 5586 5581 5575 5571 5566 5561 5556
5662 5649 5654 5651 5648 5651 5638 5638 5633 5627 5626 5612 5611 5636 5672 5668 5667 5659 5652 5648 5643 5640 5636 5633 5630 5628 5625 5622 5619 5616 5612 5608 5603 5598 5593 5587 5583 5578 5573 5568 5564 5559 5553 5548
5655 5644 5639 5653 5661 5658 5651 5645 5634 5616 5617 5621 5611 5631 5672 5669 5661 5651 5644 5642 5637 5634 5629 5626 5622 5618 5615 5611 5609 5606 5602 5598 5594 5588 5583 5577 5573 5567 5562 5559 5554 5549 5545 5540
5646 5633 5625 5638 5634 5636 5637 5638 5634 5624 5615 5608 5601 5623 5664 5660 5652 5643 5637 5633 5629 5626 5622 5616 5611 5607 5603 5601 5598 5595 5592 5588 5583 5578 5572 5566 5561 5556 5552 5548 5544 5540 5535 5531
5635 5627 5621 5618 5627 5630 5628 5630 5628 5617 5606 5606 5613 5626 5642 5641 5637 5633 5629 5625 5620 5616 5612 5607 5601 5597 5593 5590 5587 5584 5580 5576 5572 5566 5560 5554 5549 5545 5542 5538 5534 5530 5525 5521
5624 5616 5620 5624 5629 5628 5626 5626 5624 5617 5615 5609 5619 5623 5630 5630 5626 5622 5618 5614 5610 5607 5603 5598 5591 5586 5583 5579 5576 5572 5567 5563 5559 5553 5547 5542 5538 5534 5530 5525 5521 5517 5513 5510
5616 5608 5611 5612 5618 5619 5621 5626 5624 5621 5620 5617 5617 5619 5627 5622 5617 5611 5605 5601 5597 5595 5592 5587 5581 5576 5571 5566 5562 5558 5554 5550 5545 5540 5534 5530 5525 5521 5516 5512 5508 5505 5501 5497
5609 5602 5597 5595 5607 5605 5608 5627 5627 5624 5626 5620 5611 5613 5616 5609 5603 5597 5592 5589 5586 5582 5577 5573 5568 5562 5557 5552 5547 5543 5539 5535 5530 5524 5520 5517 5513 5508 5504 5500 5496 5492 5489 5485
5602 5594 5586 5582 5587 5578 5612 5634 5629 5620 5617 5615 5611 5608 5603 5597 5593 5589 5583 5577 5571 5566 5562 5557 5551 5546 5541 5536 5531 5527 5523 5518 5514 5510 5507 5503 5499 5494 5491 5487 5484 5481 5479 5475
5597 5587 5577 5571 5570 5584 5611 5620 5615 5607 5603 5605 5600 5596 5591 5587 5581 5577 5573 5564 5557 5552 5547 5541 5535 5530 5524 5519 5514 5510 5506 5502 5498 5495 5492 5488 5484 5480 5477 5475 5473 5471 5469 5467
5582 5580 5569 5565 5559 5563 5599 5601 5602 5593 5583 5588 5585 5579 5574 5567 5553 5556 5554 5548 5543 5537 5531 5526 5519 5513 5507 5502 5496 5492 5488 5485 5482 5480 5477 5473 5470 5466 5465 5464 5463 5461 5459 5457
5570 5564 5559 5556 5553 5570 5595 5589 5587 5570 5569 5574 5572 5564 5557 5547 5539 5540 5538 5533 5526 5520 5515 5509 5502 5495 5488 5483 5478 5474 5471 5468 5466 5464 5462 5459 5455 5453 5452 5451 5450 5448 5447 5445
5571 5562 5560 5556 5550 5560 5582 5579 5569 5565 5567 5563 5556 5550 5542 5536 5532 5527 5521 5515 5509 5503 5497 5491 5483 5477 5472 5466 5461 5459 5456 5454 5452 5449 5447 5444 5442 5440 5439 5437 5437 5435 5433 5432
5575 5576 5572 5568 5566 5578 5575 5569 5564 5558 5551 5546 5538 5533 5526 5520 5515 5510 5503 5497 5491 5484 5478 5472 5465 5461 5457 5450 5444 5442 5442 5439 5438 5435 5433 5431 5429 5427 5425 5424 5424 5423 5421 5419
5573 5576 5566 5561 5567 5568 5564 5559 5552 5545 5537 5531 5524 5517 5510 5502 5497 5490 5484 5478 5472 5467 5460 5454 5448 5444 5442 5437 5432 5427 5427 5425 5424 5422 5420 5418 5416 5415 5414 5412 5411 5409 5408 5406
5557 5555 5549 5547 5550 5550 5549 5540 5533 5528 5521 5515 5508 5500 5492 5484 5478 5471 5465 5460 5454 5449 5443 5437 5431 5429 5427 5425 5421 5417 5415 5413 5412 5410 5408 5405 5403 5403 5403 5402 5400 5399 5398 5395
5543 5536 5530 5532 5533 5526 5524 5520 5515 5508 5502 5495 5488 5481 5474 5467 5460 5454 5449 5443 5438 5433 5428 5423 5419 5415 5414 5412 5410 5408 5405 5402 5400 5398 5396 5393 5392 5392 5392 5393 5394 5393 5391 5392